Regional Weather Roundup
Issued by NWS

Home | Current Version | Previous Version | Graphics & Text | Print | Product List | Glossary On
Versions: 1 2 3 4 5 6 7 8 9 10 11 12 13 14 15 16 17 18 19 20 21 22 23 24 25 26 27 28 29 30 31 32 33 34 35 36 37 38 39 40 41 42 43 44 45 46 47 48 49 50
000
ASUS43 KIND 141809
RWRIN

WEATHER ROUNDUP FOR INDIANA
NATIONAL WEATHER SERVICE INDIANAPOLIS IN
200 PM EDT SUN SEP 14 2014

NOTE: "FAIR" INDICATES FEW OR NO CLOUDS BELOW 12,000 FEET WITH NO
SIGNIFICANT WEATHER AND/OR OBSTRUCTIONS TO VISIBILITY.

* - STATION DOES NOT REPORT WEATHER SUCH AS PRECIPITATION OR FOG.

+ - STATION NOT QUALITY CONTROLLED BY THE NATIONAL WEATHER SERVICE.
    USE DATA WITH CAUTION...ESPECIALLY DEWPOINT AND RELATIVE
    HUMIDITY OBSERVATIONS.

INZ001>003-010>013-019-020-141900-
NORTHWEST INDIANA

CITY           SKY/WX    TMP DP  RH WIND       PRES   REMARKS
GARY /AIRPORT/ MOSUNNY   63  41  45 S8        30.28F
KNOX *+        PTSUNNY   59  41  50 W3        30.28F
LA PORTE +     MOSUNNY   60  40  48 W7        30.29F
6HR MIN TEMP:  46; 6HR MAX TEMP:  60;

MICHIGAN CITY+ PTSUNNY   61  41  48 SW3       30.29F
MONTICELLO +   SUNNY     61  44  53 CALM      30.28F
RENSSELAER +   MOSUNNY   61  45  55 CALM      30.28F
VALPARAISO     PTSUNNY   60  41  49 SW6       30.29F
6HR MIN TEMP:  46; 6HR MAX TEMP:  61;


$$

LMZ046-743>745-141900-
SOUTHERN LAKE MICHIGAN

STATION/POSITION TIME  TEMP WIND        PRES
                       AIR  DIR/SP/G
                 (UTC) (F)  (DEG/KT/KT) (MB)
MICHIGAN CITY    1800   58  210/  8/ 11   N/A

$$

INZ004-005-014>016-021>024-141900-
NORTH CENTRAL INDIANA

CITY           SKY/WX    TMP DP  RH WIND       PRES   REMARKS
ELKHART        PTSUNNY   61  41  48 SW5       30.30F
GOSHEN         CLOUDY    60  41  49 VRB3      30.29F
6HR MIN TEMP:  48; 6HR MAX TEMP:  63;

LOGANSPORT +   SUNNY     63  41  45 W3        30.29F
PERU/GRISSOM   PTSUNNY   63  46  55 SW2       30.28F
6HR MIN TEMP:  40; 6HR MAX TEMP:  63;

ROCHESTER +    SUNNY     64  45  48 SW5       30.29F
SOUTH BEND     PTSUNNY   61  41  47 W7        30.29F
6HR MIN TEMP:  50; 6HR MAX TEMP:  62;

WARSAW +       CLOUDY    59  45  58 NW5       30.29F

$$

INZ006>009-017-018-025>027-141900-
NORTHEAST INDIANA

CITY           SKY/WX    TMP DP  RH WIND       PRES   REMARKS
ANGOLA *+      CLOUDY    64  45  48 SW7       30.28F
AUBURN +       PTSUNNY   61  39  44 CALM      30.29F
FORT WAYNE     PTSUNNY   61  44  53 W7        30.29F
6HR MIN TEMP:  48; 6HR MAX TEMP:  63;

HUNTINGTON +   PTSUNNY   62  47  56 SW3       30.28F
6HR MIN TEMP:  46; 6HR MAX TEMP:  62;


$$

INZ028-029-035-036-043>045-051>053-141900-
WEST CENTRAL INDIANA

CITY           SKY/WX    TMP DP  RH WIND       PRES   REMARKS
GREENCASTLE +  SUNNY     63  45  51 E5        30.28F
LAFAYETTE      MOSUNNY   63  44  50 VRB5      30.28F
6HR MIN TEMP:  42; 6HR MAX TEMP:  63;

TERRE HAUTE    SUNNY     65  46  50 SE6       30.28F
6HR MIN TEMP:  40; 6HR MAX TEMP:  66;


$$

INZ030>032-037>040-046>048-054>057-064-065-141900-
CENTRAL INDIANA

CITY           SKY/WX    TMP DP  RH WIND       PRES   REMARKS
CP ATTERBURY + SUNNY     64  45  48 SW3       30.28F
FRANKFORT +    SUNNY     64  44  47 S3        30.29F
GREENWOOD *+   SUNNY     66  48  52 W5        30.28
INDIANAPOLIS   MOSUNNY   64  44  48 VRB3      30.27F
6HR MIN TEMP:  46; 6HR MAX TEMP:  65;

-EAGLE CREEK   SUNNY     64  42  44 VRB5      30.27F
6HR MIN TEMP:  46; 6HR MAX TEMP:  64;

KOKOMO *+      CLOUDY    64  45  48 SW5       30.28F
MARION +       PTSUNNY   62  43  49 CALM      30.28F
MT COMFORT *+  MOSUNNY   66  34  30 CALM      30.28F
SHELBYVILLE    SUNNY     68  46  45 VRB6      30.27F
6HR MIN TEMP:  46; 6HR MAX TEMP:  68;

ZIONSVILLE +   SUNNY     64  46  51 SE3       30.29F
6HR MIN TEMP:  41; 6HR MAX TEMP:  64;


$$

INZ033-034-041-042-049-050-058-059-141900-
EAST CENTRAL INDIANA

CITY           SKY/WX    TMP DP  RH WIND       PRES   REMARKS
MUNCIE         MOSUNNY   63  44  50 VRB3      30.28F
6HR MIN TEMP:  41; 6HR MAX TEMP:  64;


$$

INZ060-061-067>069-081>083-085>088-141900-
SOUTHWEST INDIANA

CITY           SKY/WX    TMP DP  RH WIND       PRES   REMARKS
EVANSVILLE     SUNNY     69  47  45 NE3       30.28F
6HR MIN TEMP:  50; 6HR MAX TEMP:  69;

WASHINGTON +   SUNNY     67  46  46 E7        30.27F
6HR MIN TEMP:  43; 6HR MAX TEMP:  67;


$$

INZ062-063-066-070>080-084-089>092-141900-
SOUTH CENTRAL AND SOUTHEAST INDIANA

CITY           SKY/WX    TMP DP  RH WIND       PRES   REMARKS
BLOOMINGTON    SUNNY     65  44  46 VRB3      30.28F
6HR MIN TEMP:  43; 6HR MAX TEMP:  67;

NORTH VERNON + SUNNY     68  45  42 CALM      30.28

$$




USA.gov is the U.S. government's official web portal to all federal, state and local government web resources and services.